This is the latest recevied weather packets stored in our database for station/object YM2KRB-11. If no packets are shown the sender has not sent any weather packets the latest 10 day(s).
| Time | Temp. | Humidity | Pressure | Rain* | Wind** | Luminosity | Snow |
|---|---|---|---|---|---|---|---|
| 1778034282 | 12.78° C | 63% | 942 hPa | - | - | - | - |
| 1778033081 | 12.78° C | 64% | 941.8 hPa | - | - | - | - |
| 1778031880 | 12.78° C | 64% | 941.8 hPa | - | - | - | - |
| 1778030679 | 12.78° C | 64% | 941.6 hPa | - | - | - | - |
| 1778029479 | 12.78° C | 63% | 941.7 hPa | - | - | - | - |
| 1778028278 | 12.22° C | 64% | 941.6 hPa | - | - | - | - |
| 1778027077 | 12.78° C | 64% | 941.5 hPa | - | - | - | - |
| 1778025876 | 12.22° C | 63% | 941.5 hPa | - | - | - | - |
| 1778024676 | 13.33° C | 61% | 941.3 hPa | - | - | - | - |
| 1778023475 | 13.33° C | 61% | 941.4 hPa | - | - | - | - |
| 1778022274 | 13.89° C | 60% | 941.4 hPa | - | - | - | - |
| 1778021073 | 13.89° C | 59% | 941.4 hPa | - | - | - | - |
| 1778019872 | 14.44° C | 59% | 941.5 hPa | - | - | - | - |
| 1778018672 | 13.89° C | 60% | 941.7 hPa | - | - | - | - |
| 1778017471 | 12.78° C | 62% | 941.7 hPa | - | - | - | - |
| 1778016270 | 12.78° C | 63% | 941.6 hPa | - | - | - | - |
| 1778015069 | 13.33° C | 62% | 941.7 hPa | - | - | - | - |
| 1778013868 | 13.89° C | 60% | 941.7 hPa | - | - | - | - |
| 1778012668 | 13.89° C | 60% | 941.8 hPa | - | - | - | - |
| 1778011467 | 13.33° C | 61% | 941.8 hPa | - | - | - | - |
| 1778010271 | 13.33° C | 61% | 941.7 hPa | - | - | - | - |
| 1778009065 | 12.78° C | 62% | 941.6 hPa | - | - | - | - |
| 1778007865 | 12.78° C | 62% | 941.7 hPa | - | - | - | - |
| 1778006664 | 13.33° C | 60% | 941.5 hPa | - | - | - | - |
| 1778005463 | 13.89° C | 59% | 941.4 hPa | - | - | - | - |
* Rain since midnight (hover to see other rain measurements)
** Current wind speed in m/s (hover to see current wind gust speed)